Regional Weather Roundup
Issued by NWS

Home | Current Version | Previous Version | Graphics & Text | Print | Product List | Glossary On
Versions: 1 2 3 4 5 6 7 8 9 10 11 12 13 14 15 16 17 18 19 20 21 22 23 24 25 26 27 28 29 30 31 32 33 34 35 36 37 38 39 40 41 42 43 44 45 46 47 48 49 50
000
ASUS43 KIND 121459
RWRIN

WEATHER ROUNDUP FOR INDIANA
NATIONAL WEATHER SERVICE INDIANAPOLIS IN
1000 AM EST TUE DEC 12 2017

NOTE: "FAIR" INDICATES FEW OR NO CLOUDS BELOW 12,000 FEET WITH NO
SIGNIFICANT WEATHER AND/OR OBSTRUCTIONS TO VISIBILITY.

* - STATION DOES NOT REPORT WEATHER SUCH AS PRECIPITATION OR FOG.

+ - STATION NOT QUALITY CONTROLLED BY THE NATIONAL WEATHER SERVICE.
    USE DATA WITH CAUTION...ESPECIALLY DEWPOINT AND RELATIVE
    HUMIDITY OBSERVATIONS.

INZ001>003-010>013-019-020-121600-
NORTHWEST INDIANA

CITY           SKY/WX    TMP DP  RH WIND       PRES   REMARKS
GARY /AIRPORT/ PTSUNNY   21   7  53 W17G35    30.08R WCI   7
MONTICELLO +   SUNNY     22   8  54 NW21G26   30.04R WCI   6
VALPARAISO     LGT SNOW  21  15  78 NW20G26   30.03R VSB 3/4 WCI   6

$$

LMZ046-743>745-121600-
SOUTHERN LAKE MICHIGAN

STATION/POSITION TIME  TEMP    WIND        PRES    WAVE
                       AIR SEA DIR/SP/G            HT
                 (UTC) (F)     (DEG/KT/KT) (MB)    (FT)
BURNS HARBOR     1440   24     320/ 18/ 28 1017.3R
MICHIGAN CITY    1430   24     300/ 28/ 31   N/A

$$

INZ004-005-014>016-021>024-121600-
NORTH CENTRAL INDIANA

CITY           SKY/WX    TMP DP  RH WIND       PRES   REMARKS
ELKHART        MOSUNNY   21  16  79 NW9       29.97R WCI  11
GOSHEN         MOSUNNY   21  14  74 NW14      29.96R WCI   8
SOUTH BEND     CLOUDY    20  16  84 NW12      29.98R FOG     WCI   8

$$

INZ006>009-017-018-025>027-121600-
NORTHEAST INDIANA

CITY           SKY/WX    TMP DP  RH WIND       PRES   REMARKS
FORT WAYNE     LGT SNOW  22  17  81 NW12      29.96R WCI  10
KENDALLVILLE + CLOUDY    20  13  73 N10G17    29.93R WCI   9

$$

INZ028-029-035-036-043>045-051>053-121600-
WEST CENTRAL INDIANA

CITY           SKY/WX    TMP DP  RH WIND       PRES   REMARKS
LAFAYETTE      SUNNY     21  10  62 NW15G29   30.07R WCI   8
TERRE HAUTE    SUNNY     24  11  57 NW20G28   30.11R WCI  10

$$

INZ030>032-037>040-046>048-054>057-064-065-121600-
CENTRAL INDIANA

CITY           SKY/WX    TMP DP  RH WIND       PRES   REMARKS
COLUMBUS       SUNNY     27  10  50 NW18G25   30.03R WCI  13
INDIANAPOLIS   MOSUNNY   25  13  60 NW16G29   30.03R WCI  12
-EAGLE CREEK   SUNNY     24  13  62 NW21G30   30.02R WCI   9
KOKOMO +       LGT SNOW  22  14  71 NW20      30.00R WCI   7
MT COMFORT *+  MOSUNNY   23  18  80 NW15G24   30.01R WCI  10
SHELBYVILLE    SUNNY     27  14  58 NW16G24   30.00R WCI  15

$$

INZ033-034-041-042-049-050-058-059-121600-
EAST CENTRAL INDIANA

CITY           SKY/WX    TMP DP  RH WIND       PRES   REMARKS
MUNCIE         LGT SNOW  26  17  68 NW15      29.96R WCI  14
RICHMOND +     CLOUDY    25  19  80 NW15G26   29.93R WCI  12

$$

INZ060-061-067>069-081>083-085>088-121600-
SOUTHWEST INDIANA

CITY           SKY/WX    TMP DP  RH WIND       PRES   REMARKS
EVANSVILLE     PTSUNNY   32  21  64 NW15G26   30.13R WCI  22
HUNTINGBURG +  MOSUNNY   30  19  63 NW23G29   30.09R WCI  17

$$

INZ062-063-066-070>080-084-089>092-121600-
SOUTH CENTRAL AND SOUTHEAST INDIANA

CITY           SKY/WX    TMP DP  RH WIND       PRES   REMARKS
BLOOMINGTON    PTSUNNY   26  12  55 NW12G18   30.05R WCI  16
MADISON *+     PTSUNNY   30  18  59 NW16G22   30.01R WCI  19
SEYMOUR +      PTSUNNY   30  14  51 NW20G25   30.03R WCI  18

$$




USA.gov is the U.S. government's official web portal to all federal, state and local government web resources and services.